EW0868 Weather Reports


Display with metric or nautical units.
time (UTC)temp
F
wind
direction
speed
MPH
gust
MPH
rain 1hr
in
rain 24hr
in
rain mn
in
humidity
%
barometer
mb
20260509201548 66 120 0.0 0.0 0.00 0.03 0.00 71 1019.6
20260509200100 65 254 0.0 5.0 0.00 0.03 0.00 72 1019.7
20260509194612 65 90 1.0 7.0 0.00 0.03 0.00 72 1019.8
20260509193105 65 321 0.0 7.0 0.00 0.03 0.00 74 1020.0
20260509191542 64 63 1.0 5.0 0.00 0.03 0.00 74 1020.1
20260509190049 64 100 0.0 2.0 0.00 0.03 0.00 76 1020.3
20260509184547 63 252 0.0 5.0 0.00 0.03 0.00 77 1020.4
20260509183039 62 360 0.0 3.0 0.00 0.03 0.00 79 1020.4
20260509181612 61 360 0.0 0.0 0.00 0.03 0.00 79 1020.6
20260509180042 61 234 0.0 0.0 0.00 0.03 0.00 81 1020.7
20260509174536 60 52 0.0 2.0 0.00 0.03 0.00 82 1020.7
20260509173054 58 264 0.0 0.0 0.00 0.03 0.00 83 1020.8
20260509171547 58 84 0.0 0.0 0.00 0.03 0.00 86 1020.9
20260509170052 57 82 0.0 0.0 0.00 0.03 0.00 87 1021.0
20260509164550 56 21 0.0 0.0 0.00 0.03 0.00 89 1021.0
20260509163044 55 21 0.0 3.0 0.00 0.03 0.00 90 1021.2
20260509161600 55 23 0.0 2.0 0.00 0.03 0.00 90 1021.0
20260509160047 54 16 0.0 0.0 0.00 0.03 0.00 90 1021.2
20260509154559 54 16 0.0 0.0 0.00 0.03 0.00 90 1021.3
20260509153035 54 16 0.0 0.0 0.00 0.03 0.00 90 1021.3
20260509151609 53 16 0.0 1.0 0.00 0.03 0.00 90 1021.4
20260509150041 53 16 0.0 0.0 0.00 0.03 0.00 91 1021.5
20260509144553 52 16 0.0 0.0 0.00 0.03 0.00 91 1021.6
20260509143046 52 15 0.0 0.0 0.00 0.03 0.00 91 1021.5
20260509141542 52 15 1.0 4.0 0.00 0.03 0.00 91 1021.6
20260509140110 52 59 0.0 0.0 0.00 0.03 0.00 91 1021.7
20260509134546 52 59 0.0 1.0 0.00 0.03 0.00 91 1021.7
20260509133039 52 96 0.0 0.0 0.00 0.03 0.00 91 1021.5
20260509131536 52 117 0.0 0.0 0.00 0.03 0.00 91 1021.5
20260509130042 52 117 0.0 0.0 0.00 0.03 0.00 91 1021.7
20260509124536 52 118 0.0 1.0 0.00 0.03 0.00 91 1021.7
20260509123053 52 130 0.0 0.0 0.00 0.03 0.00 91 1021.9
20260509121546 52 130 0.0 0.0 0.00 0.03 0.00 91 1022.1
20260509120038 52 130 0.0 0.0 0.00 0.03 0.00 91 1022.0
20260509114552 52 130 0.0 0.0 0.00 0.03 0.00 91 1022.2
20260509113049 52 130 0.0 0.0 0.00 0.03 0.00 91 1022.4
20260509111543 52 130 0.0 0.0 0.00 0.03 0.00 91 1022.4
20260509110051 52 130 0.0 0.0 0.00 0.03 0.00 91 1022.5
20260509104547 52 130 0.0 0.0 0.00 0.03 0.00 91 1022.5
20260509103059 52 130 0.0 0.0 0.00 0.03 0.00 91 1022.6
20260509101534 52 130 0.0 0.0 0.00 0.03 0.00 91 1022.5
20260509100042 52 130 0.0 0.0 0.00 0.03 0.00 91 1022.6
20260509094537 52 130 0.0 0.0 0.00 0.03 0.00 91 1022.6
20260509093034 52 130 0.0 0.0 0.00 0.03 0.00 91 1022.5
20260509091608 53 130 0.0 0.0 0.00 0.03 0.00 90 1022.4
20260509090038 53 130 0.0 0.0 0.00 0.03 0.00 91 1022.4
20260509084550 53 130 0.0 0.0 0.00 0.03 0.00 90 1022.6
20260509083043 53 130 0.0 0.0 0.00 0.03 0.00 90 1022.6
20260509081541 53 130 0.0 0.0 0.00 0.03 0.00 90 1022.7
20260509080107 53 130 0.0 0.0 0.00 0.03 0.00 90 1022.7
20260509074542 53 130 0.0 0.0 0.00 0.03 0.00 90 1022.8
20260509073036 53 130 0.0 0.0 0.01 0.03 0.00 90 1022.9
20260509071534 53 130 0.0 0.0 0.01 0.03 0.00 90 1022.8
20260509070042 54 130 0.0 0.0 0.01 0.03 0.00 90 1022.8
20260509064613 54 130 0.0 0.0 0.01 0.03 0.03 90 1022.8
20260509063050 54 130 0.0 0.0 0.00 0.02 0.02 90 1022.9
20260509061543 54 222 0.0 0.0 0.00 0.02 0.02 90 1022.8
20260509060114 54 222 0.0 0.0 0.00 0.02 0.02 89 1022.8
20260509054608 54 222 0.0 0.0 0.00 0.02 0.02 89 1022.8
20260509053040 54 225 0.0 0.0 0.01 0.02 0.02 89 1022.7
20260509051537 54 225 0.0 0.0 0.01 0.02 0.02 89 1022.7
20260509050046 54 225 0.0 0.0 0.02 0.02 0.02 89 1022.7
20260509044542 54 225 0.0 0.0 0.02 0.02 0.02 89 1022.7
20260509043035 54 225 0.0 0.0 0.01 0.01 0.01 88 1022.6
20260509041533 54 225 0.0 0.0 0.01 0.01 0.01 88 1022.6
20260509040041 54 225 0.0 0.0 0.00 0.00 0.00 88 1022.6
20260509034536 54 225 0.0 1.0 0.00 0.00 0.00 87 1022.5
20260509033035 55 223 0.0 0.0 0.00 0.00 0.00 87 1022.4
20260509031549 55 223 0.0 0.0 0.00 0.00 0.00 86 1022.5
20260509030042 55 215 0.0 0.0 0.00 0.00 0.00 85 1022.4
20260509024536 56 202 0.0 4.0 0.00 0.00 0.00 84 1022.4
20260509023033 56 228 0.0 0.0 0.00 0.00 0.00 84 1022.4
20260509021547 56 229 0.0 4.0 0.00 0.00 0.00 83 1022.3
20260509020039 56 254 0.0 0.0 0.00 0.00 0.00 83 1022.3
20260509014554 56 239 0.0 0.0 0.00 0.00 0.00 84 1022.3
20260509013047 56 221 0.0 4.0 0.00 0.00 0.00 84 1022.3
20260509011542 56 223 0.0 3.0 0.00 0.00 0.00 84 1022.4
20260509010050 55 217 0.0 2.0 0.00 0.00 0.00 85 1022.5
20260509004546 55 224 0.0 0.0 0.00 0.00 0.00 84 1022.6
20260509003100 56 254 0.0 3.0 0.00 0.00 0.00 83 1022.5
20260509001549 56 360 0.0 6.0 0.00 0.00 0.00 83 1022.6
20260509000040 56 224 1.0 6.0 0.00 0.00 0.00 83 1022.6
20260508234533 57 246 2.0 5.0 0.00 0.00 0.00 82 1022.6
20260508233053 56 254 0.0 3.0 0.00 0.00 0.00 82 1022.6
20260508231546 57 360 3.0 7.0 0.00 0.00 0.00 81 1022.6
20260508230037 57 257 1.0 5.0 0.00 0.00 0.00 81 1022.5
20260508224551 57 214 3.0 9.0 0.00 0.00 0.00 81 1022.5
20260508223046 57 215 4.0 8.0 0.00 0.00 0.00 80 1022.5
20260508221542 57 254 4.0 7.0 0.00 0.00 0.00 79 1022.4
20260508220050 58 217 5.0 10.0 0.00 0.00 0.00 78 1022.4
20260508214548 57 252 4.0 10.0 0.00 0.00 0.00 77 1022.3
20260508213042 57 266 2.0 8.0 0.00 0.00 0.00 80 1022.1
20260508211539 57 252 2.0 9.0 0.00 0.00 0.00 79 1022.2
20260508210047 57 175 2.0 6.0 0.00 0.00 0.00 77 1022.0
20260508204541 57 245 2.0 7.0 0.00 0.00 0.00 79 1021.8
20260508203039 56 265 2.0 5.0 0.00 0.00 0.00 78 1021.7